Flag for Switzerland

Past Weather in 47°24'28.1"N, 9°37'03.1"E, Switzerland — Yesterday and Last 2 Weeks

Now
27 °F

Clear.


Feels Like: 27 °F
Forecast: 51 / 26 °F
Wind: 2 mph from North

Location: Saint Gallen-Altenrhein

Current Time: Apr 1, 2020 at 4:06:22 am

Latest Report: Apr 1, 2020 at 3:20 am


Visibility: 10 mi

Pressure: 30.15 "Hg

Humidity: 86%

Dew Point: 23 °F

Location of 47°24'28.1"N, 9°37'03.1"ELocation

Past Weather in 47°24'28.1"N, 9°37'03.1"E — Graph

°F

47°24'28.1"N, 9°37'03.1"E Temperature Yesterday

Maximum temperature yesterday: 45 °F (at 1:50 pm)
Minimum temperature yesterday: 25 °F (at 2:20 am)
Average temperature yesterday: 35 °F

High & Low Weather Summary for the Past Weeks

 TemperatureHumidityPressure
High63 °F (Mar 19, 3:20 pm)100% (Mar 18, 3:20 am)30.45 "Hg (Mar 18, 3:20 am)
Low23 °F (Mar 24, 4:20 am)31% (Mar 31, 2:50 pm)29.92 "Hg (Mar 26, 11:20 pm)
Average41 °F73%30.16 "Hg
* Reported Mar 17 1:20 am — Apr 1 2:50 am, 47°24'28.1"N, 9°37'03.1"E. Weather by CustomWeather, © 2020

Note: Actual official high and low records may vary slightly from our data, if they occured in-between our weather recording intervals... More about our weather records

47°24'28.1"N, 9°37'03.1"E Weather History for the Previous 24 Hours

Scroll right to see more
 ConditionsComfort  
Time TempWeatherWind HumidityBarometerVisibility
2:50 am
Wed, Apr 1
28 °FClear.3 mph80%30.15 "Hg10 mi
2:20 am28 °FClear.2 mph86%30.18 "Hg10 mi
1:50 am28 °FClear.2 mph86%30.18 "Hg10 mi
1:20 am32 °FClear.2 mph75%30.18 "Hg10 mi
12:50 am32 °FPassing clouds.3 mph75%30.21 "HgN/A
12:20 am30 °FPassing clouds.3 mph80%30.21 "HgN/A
11:50 pm
Tue, Mar 31
30 °FPassing clouds.3 mph75%30.21 "HgN/A
11:20 pm32 °FClear.1 mph69%30.21 "Hg10 mi
10:50 pm32 °FClear.3 mph75%30.24 "Hg10 mi
10:20 pm36 °FPassing clouds.3 mph65%30.24 "HgN/A
9:50 pm34 °FClear.1 mph65%30.24 "Hg10 mi
9:20 pm39 °FClear.3 mph52%30.24 "Hg10 mi
8:50 pm39 °FPassing clouds.6 mph52%30.24 "HgN/A
8:20 pm41 °FPassing clouds.9 mph49%30.24 "HgN/A
7:50 pm41 °FPassing clouds.7 mph49%30.24 "HgN/A
7:20 pm43 °FSunny.9 mph46%30.24 "Hg10 mi
6:50 pm43 °FPassing clouds.7 mph39%30.21 "HgN/A
6:20 pm45 °FPassing clouds.7 mph34%30.21 "HgN/A
5:50 pm45 °FPassing clouds.9 mph34%30.21 "HgN/A
5:20 pm45 °FSunny.9 mph31%30.21 "Hg10 mi
4:50 pm45 °FQuite cool.9 mph37%30.21 "HgN/A
3:20 pm45 °FPassing clouds.10 mph31%30.21 "HgN/A
2:50 pm45 °FPassing clouds.10 mph31%30.21 "HgN/A
2:20 pm45 °FPassing clouds.8 mph39%30.21 "HgN/A
1:50 pm45 °FPassing clouds.6 mph53%30.21 "HgN/A
1:20 pm43 °FPassing clouds.7 mph49%30.24 "HgN/A
12:50 pm43 °FPassing clouds.6 mph49%30.24 "HgN/A
12:20 pm41 °FPassing clouds.6 mph45%30.24 "HgN/A
11:50 am41 °FSunny.2 mph49%30.24 "Hg10 mi
11:20 am37 °FPassing clouds.6 mph60%30.24 "HgN/A
10:50 am37 °FSunny.3 mph65%30.24 "Hg10 mi
10:20 am36 °FSunny.2 mph65%30.27 "Hg10 mi
9:50 am34 °FSunny.2 mph70%30.27 "Hg10 mi
9:20 am32 °FSunny.3 mph75%30.27 "Hg10 mi
8:50 am30 °FSunny.3 mph80%30.24 "Hg10 mi
8:20 am28 °FSunny.3 mph80%30.24 "Hg10 mi
7:50 am28 °FPassing clouds.5 mph80%30.21 "HgN/A
7:20 am28 °FSunny.3 mph80%30.21 "Hg10 mi
6:50 am25 °FClear.5 mph93%30.21 "Hg10 mi
6:20 am25 °FClear.3 mph86%30.21 "Hg10 mi
5:50 am27 °FClear.3 mph86%30.21 "Hg10 mi
5:20 am27 °FClear.2 mph80%30.21 "Hg10 mi
4:50 am25 °FClear.1 mph86%30.21 "Hg10 mi
4:20 am25 °FClear.3 mph93%30.21 "Hg10 mi
Weather by CustomWeather, © 2020

See weather overview

Advertising